Janesville, WI

12:47 PM CDT on April 26, 2017 (GMT -0500)
Rock County

Weather History for KJVL - August, 2014

Change the Weather History Date:

Wednesday, August 20, 2014

  Actual Average Record
Temperature  
Mean Temperature 74 °F -  
Max Temperature 87 °F 76 °F 91 °F (2003)
Min Temperature 62 °F 57 °F 48 °F (1992)
Cooling Degree Days 10    
Growing Degree Days 24 (Base 50)    
Moisture  
Dew Point 64 °F    
Average Humidity 77    
Maximum Humidity 94    
Minimum Humidity 43    
Precipitation  
Precipitation 0.00 in - - ()
Sea Level Pressure  
Sea Level Pressure 29.86 in    
Wind  
Wind Speed 2 mph (WSW)    
Max Wind Speed 12 mph    
Max Gust Speed 20 mph    
Visibility 10 miles    
Events      
Averages and records for this station are not official NWS values.
T = Trace of Precipitation, MM = Missing Value Source: NWS Daily Summary

Daily Weather History Graph

Daily Weather History Graph

Search for Another Location

Airport or City:

Trip Planner

Search our weather history database for the weather conditions in past years. The results will help you decide how hot, cold, wet, or windy it might be!

Date:

Astronomy

Aug. 20, 2014 Rise Set
Actual Time 6:08 AM CDT 7:50 PM CDT
Civil Twilight 5:38 AM CDT 8:19 PM CDT
Nautical Twilight 5:01 AM CDT 8:56 PM CDT
Astronomical Twilight 4:22 AM CDT 9:35 PM CDT
Moon 1:45 AM CDT (8/20) 4:37 PM CDT (8/20)
Length of Visible Light 14h 41m
Length of Day
13h 41m
Waning Crescent, 20% of the Moon is Illuminated
Aug 20
Waning Crescent
Aug 25
New
Sep 2
First Quarter
Sep 8
Full
Sep 15
Last Quarter

Hourly Weather History & Observations

Time (CDT) Temp. Heat Index Dew Point Humidity Pressure Visibility Wind Dir Wind Speed Gust Speed Precip Events Conditions
12:15 AM 68.0 °F - 64.4 °F 88% 29.79 in 10.0 mi Calm Calm - N/A   Mostly Cloudy
12:35 AM 68.0 °F - 64.4 °F 88% 29.79 in 10.0 mi Calm Calm - N/A   Mostly Cloudy
12:55 AM 68.0 °F - 64.4 °F 88% 29.79 in 10.0 mi Calm Calm - N/A   Mostly Cloudy
1:15 AM 68.0 °F - 62.6 °F 83% 29.79 in 10.0 mi Calm Calm - N/A   Clear
1:35 AM 68.0 °F - 62.6 °F 83% 29.79 in 10.0 mi Calm Calm - N/A   Clear
1:55 AM 66.2 °F - 62.6 °F 88% 29.80 in 10.0 mi Calm Calm - N/A   Clear
2:15 AM 66.2 °F - 62.6 °F 88% 29.80 in 10.0 mi Calm Calm - N/A   Clear
2:35 AM 64.4 °F - 62.6 °F 94% 29.80 in 7.0 mi Calm Calm - N/A   Clear
2:55 AM 64.4 °F - 62.6 °F 94% 29.81 in 10.0 mi Calm Calm - N/A   Clear
3:15 AM 64.4 °F - 62.6 °F 94% 29.81 in 10.0 mi Calm Calm - N/A   Clear
3:35 AM 64.4 °F - 60.8 °F 88% 29.81 in 7.0 mi Calm Calm - N/A   Clear
3:55 AM 64.4 °F - 62.6 °F 94% 29.81 in 10.0 mi Calm Calm - N/A   Clear
4:15 AM 64.4 °F - 62.6 °F 94% 29.81 in 10.0 mi Calm Calm - N/A   Clear
4:35 AM 64.4 °F - 60.8 °F 88% 29.81 in 10.0 mi Calm Calm - N/A   Clear
4:55 AM 64.4 °F - 62.6 °F 94% 29.82 in 10.0 mi Calm Calm - N/A   Scattered Clouds
5:15 AM 64.4 °F - 60.8 °F 88% 29.83 in 7.0 mi Calm Calm - N/A   Scattered Clouds
5:35 AM 62.6 °F - 60.8 °F 94% 29.82 in 10.0 mi Calm Calm - N/A   Clear
5:45 AM 62.6 °F - 60.8 °F 94% 29.82 in 6.0 mi Calm Calm - N/A   Scattered Clouds
6:45 AM 62.6 °F - 60.8 °F 94% 29.84 in 6.0 mi Calm Calm - N/A   Partly Cloudy
7:45 AM 68.0 °F - 64.4 °F 88% 29.86 in 10.0 mi Calm Calm - N/A   Partly Cloudy
8:45 AM 73.4 °F - 62.6 °F 69% 29.87 in 10.0 mi Calm Calm - N/A   Clear
9:45 AM 78.8 °F - 62.6 °F 57% 29.87 in 10.0 mi Variable 5.8 mph - N/A   Clear
10:45 AM 80.6 °F 81.8 °F 62.6 °F 54% 29.88 in 10.0 mi West 9.2 mph - N/A   Clear
11:45 AM 84.2 °F 85.0 °F 62.6 °F 48% 29.89 in 10.0 mi West 11.5 mph - N/A   Clear
12:45 PM 84.2 °F 85.0 °F 62.6 °F 48% 29.89 in 10.0 mi West 11.5 mph 19.6 mph N/A   Scattered Clouds
2:45 PM 87.8 °F 88.5 °F 62.6 °F 43% 29.87 in 10.0 mi WSW 11.5 mph - N/A   Scattered Clouds
3:45 PM 87.8 °F 88.5 °F 62.6 °F 43% 29.85 in 10.0 mi WSW 8.1 mph - N/A   Scattered Clouds
4:45 PM 87.8 °F 88.5 °F 62.6 °F 43% 29.86 in 10.0 mi WSW 6.9 mph - N/A   Scattered Clouds
5:45 PM 84.2 °F 85.0 °F 62.6 °F 48% 29.88 in 10.0 mi SW 8.1 mph - N/A   Mostly Cloudy
6:45 PM 82.4 °F 83.9 °F 64.4 °F 54% 29.87 in 10.0 mi WSW 8.1 mph - N/A   Scattered Clouds
7:45 PM 80.6 °F 82.3 °F 64.4 °F 58% 29.88 in 10.0 mi WSW 4.6 mph - N/A   Scattered Clouds
8:45 PM 78.8 °F - 66.2 °F 65% 29.90 in 10.0 mi WSW 4.6 mph - N/A   Mostly Cloudy
9:15 PM 77.0 °F - 66.2 °F 69% 29.91 in 10.0 mi WSW 5.8 mph - N/A   Scattered Clouds
9:35 PM 75.2 °F - 66.2 °F 73% 29.91 in 10.0 mi WSW 4.6 mph - N/A   Clear
9:55 PM 73.4 °F - 66.2 °F 78% 29.91 in 10.0 mi Calm Calm - N/A   Clear
10:15 PM 73.4 °F - 68.0 °F 83% 29.93 in 10.0 mi Calm Calm - N/A   Clear
10:35 PM 73.4 °F - 68.0 °F 83% 29.94 in 10.0 mi Calm Calm - N/A   Clear
10:55 PM 73.4 °F - 68.0 °F 83% 29.94 in 10.0 mi Calm Calm - N/A   Clear
11:15 PM 71.6 °F - 68.0 °F 88% 29.94 in 10.0 mi Calm Calm - N/A   Clear
11:35 PM 71.6 °F - 68.0 °F 88% 29.94 in 10.0 mi SSW 3.5 mph - N/A   Clear
11:55 PM 71.6 °F - 68.0 °F 88% 29.94 in 10.0 mi Calm Calm - N/A   Clear